Year,Month,Day,Hour,Minute,Value (Times are PST for temperature in C)
2015,06,30,00,00,22.50
2015,06,30,00,01,22.50
2015,06,30,00,02,22.50
2015,06,30,00,03,22.60
2015,06,30,00,04,22.60
2015,06,30,00,05,22.60
2015,06,30,00,06,22.60
2015,06,30,00,07,22.60
2015,06,30,00,08,22.60
2015,06,30,00,09,22.60
2015,06,30,00,10,22.60
2015,06,30,00,11,22.60
2015,06,30,00,12,22.50
2015,06,30,00,13,22.50
2015,06,30,00,14,22.50
2015,06,30,00,15,22.50
2015,06,30,00,16,22.50
2015,06,30,00,17,22.50
2015,06,30,00,18,22.40
2015,06,30,00,19,22.40
2015,06,30,00,20,22.30
2015,06,30,00,21,22.30
2015,06,30,00,22,22.30
2015,06,30,00,23,22.30
2015,06,30,00,24,22.30
2015,06,30,00,25,22.30
2015,06,30,00,26,22.20
2015,06,30,00,27,22.20
2015,06,30,00,28,22.20
2015,06,30,00,29,22.20
2015,06,30,00,30,22.20
2015,06,30,00,31,22.20
2015,06,30,00,32,22.10
2015,06,30,00,33,22.10
2015,06,30,00,34,22.00
2015,06,30,00,35,21.90
2015,06,30,00,36,21.80
2015,06,30,00,37,21.70
2015,06,30,00,38,21.60
2015,06,30,00,39,21.40
2015,06,30,00,40,21.30
2015,06,30,00,41,21.20
2015,06,30,00,42,21.00
2015,06,30,00,43,20.90
2015,06,30,00,44,20.80
2015,06,30,00,45,20.80
2015,06,30,00,46,20.80
2015,06,30,00,47,20.70
2015,06,30,00,48,20.70
2015,06,30,00,49,20.70
2015,06,30,00,50,20.70
2015,06,30,00,51,20.60
2015,06,30,00,52,20.60
2015,06,30,00,53,20.60
2015,06,30,00,54,20.50
2015,06,30,00,55,20.50
2015,06,30,00,56,20.40
2015,06,30,00,57,20.40
2015,06,30,00,58,20.40
2015,06,30,00,59,20.30
2015,06,30,01,00,20.30
2015,06,30,01,01,20.30
2015,06,30,01,02,20.20
2015,06,30,01,03,20.10
2015,06,30,01,04,20.00
2015,06,30,01,05,19.90
2015,06,30,01,06,19.80
2015,06,30,01,07,19.80
2015,06,30,01,08,19.70
2015,06,30,01,09,19.60
2015,06,30,01,10,19.50
2015,06,30,01,11,19.50
2015,06,30,01,12,19.40
2015,06,30,01,13,19.40
2015,06,30,01,14,19.50
2015,06,30,01,15,19.60
2015,06,30,01,16,19.60
2015,06,30,01,17,19.60
2015,06,30,01,18,19.60
2015,06,30,01,19,19.60
2015,06,30,01,20,19.60
2015,06,30,01,21,19.60
2015,06,30,01,22,19.60
2015,06,30,01,23,19.60
2015,06,30,01,24,19.50
2015,06,30,01,25,19.50
2015,06,30,01,26,19.50
2015,06,30,01,27,19.50
2015,06,30,01,28,19.40
2015,06,30,01,29,19.40
2015,06,30,01,30,19.40
2015,06,30,01,31,19.40
2015,06,30,01,32,19.40
2015,06,30,01,33,19.40
2015,06,30,01,34,19.40
2015,06,30,01,35,19.40
2015,06,30,01,36,19.40
2015,06,30,01,37,19.40
2015,06,30,01,38,19.40
2015,06,30,01,39,19.40
2015,06,30,01,40,19.40
2015,06,30,01,41,19.40
2015,06,30,01,42,19.40
2015,06,30,01,43,19.40
2015,06,30,01,44,19.40
2015,06,30,01,45,19.40
2015,06,30,01,46,19.40
2015,06,30,01,47,19.40
2015,06,30,01,48,19.40
2015,06,30,01,49,19.40
2015,06,30,01,50,19.40
2015,06,30,01,51,19.40
2015,06,30,01,52,19.40
2015,06,30,01,53,19.40
2015,06,30,01,54,19.40
2015,06,30,01,55,19.50
2015,06,30,01,56,19.50
2015,06,30,01,57,19.50
2015,06,30,01,58,19.60
2015,06,30,01,59,19.60
2015,06,30,02,00,19.60
2015,06,30,02,01,19.60
2015,06,30,02,02,19.60
2015,06,30,02,03,19.60
2015,06,30,02,04,19.60
2015,06,30,02,05,19.60
2015,06,30,02,06,19.70
2015,06,30,02,07,19.60
2015,06,30,02,08,19.60
2015,06,30,02,09,19.60
2015,06,30,02,10,19.60
2015,06,30,02,11,19.60
2015,06,30,02,12,19.50
2015,06,30,02,13,19.50
2015,06,30,02,14,19.50
2015,06,30,02,15,19.40
2015,06,30,02,16,19.40
2015,06,30,02,17,19.40
2015,06,30,02,18,19.40
2015,06,30,02,19,19.30
2015,06,30,02,20,19.30
2015,06,30,02,21,19.30
2015,06,30,02,22,19.30
2015,06,30,02,23,19.30
2015,06,30,02,24,19.30
2015,06,30,02,25,19.30
2015,06,30,02,26,19.20
2015,06,30,02,27,19.20
2015,06,30,02,28,19.20
2015,06,30,02,29,19.20
2015,06,30,02,30,19.20
2015,06,30,02,31,19.10
2015,06,30,02,32,19.10
2015,06,30,02,33,19.10
2015,06,30,02,34,19.00
2015,06,30,02,35,19.00
2015,06,30,02,36,18.90
2015,06,30,02,37,18.90
2015,06,30,02,38,18.80
2015,06,30,02,39,18.80
2015,06,30,02,40,18.70
2015,06,30,02,41,18.70
2015,06,30,02,42,18.60
2015,06,30,02,43,18.60
2015,06,30,02,44,18.50
2015,06,30,02,45,18.50
2015,06,30,02,46,18.40
2015,06,30,02,47,18.40
2015,06,30,02,48,18.30
2015,06,30,02,49,18.30
2015,06,30,02,50,18.30
2015,06,30,02,51,18.20
2015,06,30,02,52,18.20
2015,06,30,02,53,18.20
2015,06,30,02,54,18.20
2015,06,30,02,55,18.10
2015,06,30,02,56,18.20
2015,06,30,02,57,18.20
2015,06,30,02,58,18.20
2015,06,30,02,59,18.20
2015,06,30,03,00,18.20
2015,06,30,03,01,18.20
2015,06,30,03,02,18.20
2015,06,30,03,03,18.20
2015,06,30,03,04,18.10
2015,06,30,03,05,18.10
2015,06,30,03,06,18.10
2015,06,30,03,07,18.10
2015,06,30,03,08,18.10
2015,06,30,03,09,18.00
2015,06,30,03,10,18.00
2015,06,30,03,11,18.00
2015,06,30,03,12,17.90
2015,06,30,03,13,17.90
2015,06,30,03,14,17.90
2015,06,30,03,15,17.90
2015,06,30,03,16,17.80
2015,06,30,03,17,17.80
2015,06,30,03,18,17.80
2015,06,30,03,19,17.80
2015,06,30,03,20,17.80
2015,06,30,03,21,17.80
2015,06,30,03,22,17.80
2015,06,30,03,23,17.80
2015,06,30,03,24,17.80
2015,06,30,03,25,17.80
2015,06,30,03,26,17.70
2015,06,30,03,27,17.70
2015,06,30,03,28,17.70
2015,06,30,03,29,17.70
2015,06,30,03,30,17.70
2015,06,30,03,31,17.60
2015,06,30,03,32,17.60
2015,06,30,03,33,17.60
2015,06,30,03,34,17.50
2015,06,30,03,35,17.50
2015,06,30,03,36,17.50
2015,06,30,03,37,17.40
2015,06,30,03,38,17.40
2015,06,30,03,39,17.40
2015,06,30,03,40,17.40
2015,06,30,03,41,17.40
2015,06,30,03,42,17.30
2015,06,30,03,43,17.30
2015,06,30,03,44,17.30
2015,06,30,03,45,17.30
2015,06,30,03,46,17.30
2015,06,30,03,47,17.30
2015,06,30,03,48,17.20
2015,06,30,03,49,17.20
2015,06,30,03,50,17.20
2015,06,30,03,51,17.20
2015,06,30,03,52,17.20
2015,06,30,03,53,17.20
2015,06,30,03,54,17.20
2015,06,30,03,55,17.20
2015,06,30,03,56,17.20
2015,06,30,03,57,17.10
2015,06,30,03,58,17.10
2015,06,30,03,59,17.10
2015,06,30,04,00,17.00
2015,06,30,04,01,17.00
2015,06,30,04,02,17.00
2015,06,30,04,03,16.90
2015,06,30,04,04,16.90
2015,06,30,04,05,16.90
2015,06,30,04,06,16.90
2015,06,30,04,07,16.90
2015,06,30,04,08,16.90
2015,06,30,04,09,16.90
2015,06,30,04,10,16.90
2015,06,30,04,11,16.90
2015,06,30,04,12,16.80
2015,06,30,04,13,16.80
2015,06,30,04,14,16.80
2015,06,30,04,15,16.80
2015,06,30,04,16,16.80
2015,06,30,04,17,16.80
2015,06,30,04,18,16.80
2015,06,30,04,19,16.90
2015,06,30,04,20,16.80
2015,06,30,04,21,16.80
2015,06,30,04,22,16.80
2015,06,30,04,23,16.80
2015,06,30,04,24,16.80
2015,06,30,04,25,16.80
2015,06,30,04,26,16.80
2015,06,30,04,27,16.80
2015,06,30,04,28,16.80
2015,06,30,04,29,16.80
2015,06,30,04,30,16.80
2015,06,30,04,31,16.90
2015,06,30,04,32,16.90
2015,06,30,04,33,16.90
2015,06,30,04,34,16.90
2015,06,30,04,35,16.80
2015,06,30,04,36,16.80
2015,06,30,04,37,16.80
2015,06,30,04,38,16.80
2015,06,30,04,39,16.80
2015,06,30,04,40,16.80
2015,06,30,04,41,16.80
2015,06,30,04,42,16.80
2015,06,30,04,43,16.80
2015,06,30,04,44,16.80
2015,06,30,04,45,16.80
2015,06,30,04,46,16.80
2015,06,30,04,47,16.80
2015,06,30,04,48,16.80
2015,06,30,04,49,16.80
2015,06,30,04,50,16.80
2015,06,30,04,51,16.80
2015,06,30,04,52,16.80
2015,06,30,04,53,16.80
2015,06,30,04,54,16.80
2015,06,30,04,55,16.70
2015,06,30,04,56,16.70
2015,06,30,04,57,16.70
2015,06,30,04,58,16.70
2015,06,30,04,59,16.70
2015,06,30,05,00,16.70
2015,06,30,05,01,16.70
2015,06,30,05,02,16.70
2015,06,30,05,03,16.70
2015,06,30,05,04,16.70
2015,06,30,05,05,16.60
2015,06,30,05,06,16.60
2015,06,30,05,07,16.60
2015,06,30,05,08,16.60
2015,06,30,05,09,16.60
2015,06,30,05,10,16.60
2015,06,30,05,11,16.60
2015,06,30,05,12,16.60
2015,06,30,05,13,16.60
2015,06,30,05,14,16.60
2015,06,30,05,15,16.50
2015,06,30,05,16,16.50
2015,06,30,05,17,16.50
2015,06,30,05,18,16.50
2015,06,30,05,19,16.40
2015,06,30,05,20,16.40
2015,06,30,05,21,16.40
2015,06,30,05,22,16.50
2015,06,30,05,23,16.50
2015,06,30,05,24,16.50
2015,06,30,05,25,16.50
2015,06,30,05,26,16.50
2015,06,30,05,27,16.50
2015,06,30,05,28,16.50
2015,06,30,05,29,16.40
2015,06,30,05,30,16.40
2015,06,30,05,31,16.40
2015,06,30,05,32,16.40
2015,06,30,05,33,16.40
2015,06,30,05,34,16.40
2015,06,30,05,35,16.40
2015,06,30,05,36,16.40
2015,06,30,05,37,16.40
2015,06,30,05,38,16.40
2015,06,30,05,39,16.40
2015,06,30,05,40,16.40
2015,06,30,05,41,16.40
2015,06,30,05,42,16.40
2015,06,30,05,43,16.40
2015,06,30,05,44,16.40
2015,06,30,05,45,16.40
2015,06,30,05,46,16.40
2015,06,30,05,47,16.40
2015,06,30,05,48,16.30
2015,06,30,05,49,16.30
2015,06,30,05,50,16.30
2015,06,30,05,51,16.30
2015,06,30,05,52,16.30
2015,06,30,05,53,16.30
2015,06,30,05,54,16.30
2015,06,30,05,55,16.30
2015,06,30,05,56,16.30
2015,06,30,05,57,16.30
2015,06,30,05,58,16.30
2015,06,30,05,59,16.30
2015,06,30,06,00,16.30
2015,06,30,06,01,16.30
2015,06,30,06,02,16.30
2015,06,30,06,03,16.30
2015,06,30,06,04,16.30
2015,06,30,06,05,16.30
2015,06,30,06,06,16.30
2015,06,30,06,07,16.30
2015,06,30,06,08,16.30
2015,06,30,06,09,16.30
2015,06,30,06,10,16.30
2015,06,30,06,11,16.30
2015,06,30,06,12,16.30
2015,06,30,06,13,16.30
2015,06,30,06,14,16.30
2015,06,30,06,15,16.30
2015,06,30,06,16,16.30
2015,06,30,06,17,16.30
2015,06,30,06,18,16.30
2015,06,30,06,19,16.30
2015,06,30,06,20,16.30
2015,06,30,06,21,16.30
2015,06,30,06,22,16.30
2015,06,30,06,23,16.30
2015,06,30,06,24,16.30
2015,06,30,06,25,16.30
2015,06,30,06,26,16.30
2015,06,30,06,27,16.30
2015,06,30,06,28,16.30
2015,06,30,06,29,16.30
2015,06,30,06,30,16.30
2015,06,30,06,31,16.40
2015,06,30,06,32,16.40
2015,06,30,06,33,16.40
2015,06,30,06,34,16.40
2015,06,30,06,35,16.50
2015,06,30,06,36,16.50
2015,06,30,06,37,16.60
2015,06,30,06,38,16.70
2015,06,30,06,39,16.70
2015,06,30,06,40,16.80
2015,06,30,06,41,16.80
2015,06,30,06,42,16.90
2015,06,30,06,43,17.00
2015,06,30,06,44,17.20
2015,06,30,06,45,17.30
2015,06,30,06,46,17.40
2015,06,30,06,47,17.60
2015,06,30,06,48,17.70
2015,06,30,06,49,17.80
2015,06,30,06,50,17.90
2015,06,30,06,51,18.00
2015,06,30,06,52,18.10
2015,06,30,06,53,18.20
2015,06,30,06,54,18.30
2015,06,30,06,55,18.40
2015,06,30,06,56,18.60
2015,06,30,06,57,18.70
2015,06,30,06,58,18.80
2015,06,30,06,59,18.90
2015,06,30,07,00,19.00
2015,06,30,07,01,19.10
2015,06,30,07,02,19.20
2015,06,30,07,03,19.40
2015,06,30,07,04,19.40
2015,06,30,07,05,19.50
2015,06,30,07,06,19.60
2015,06,30,07,07,19.60
2015,06,30,07,08,19.70
2015,06,30,07,09,19.80
2015,06,30,07,10,19.90
2015,06,30,07,11,20.00
2015,06,30,07,12,20.10
2015,06,30,07,13,20.20
2015,06,30,07,14,20.30
2015,06,30,07,15,20.30
2015,06,30,07,16,20.40
2015,06,30,07,17,20.50
2015,06,30,07,18,20.70
2015,06,30,07,19,20.80
2015,06,30,07,20,21.00
2015,06,30,07,21,21.10
2015,06,30,07,22,21.20
2015,06,30,07,23,21.30
2015,06,30,07,24,21.50
2015,06,30,07,25,21.60
2015,06,30,07,26,21.80
2015,06,30,07,27,21.90
2015,06,30,07,28,22.00
2015,06,30,07,29,22.10
2015,06,30,07,30,22.20
2015,06,30,07,31,22.30
2015,06,30,07,32,22.30
2015,06,30,07,33,22.40
2015,06,30,07,34,22.50
2015,06,30,07,35,22.50
2015,06,30,07,36,22.60
2015,06,30,07,37,22.60
2015,06,30,07,38,22.70
2015,06,30,07,39,22.80
2015,06,30,07,40,22.80
2015,06,30,07,41,22.80
2015,06,30,07,42,22.90
2015,06,30,07,43,22.90
2015,06,30,07,44,23.00
2015,06,30,07,45,23.00
2015,06,30,07,46,23.10
2015,06,30,07,47,23.00
2015,06,30,07,48,23.00
2015,06,30,07,49,23.00
2015,06,30,07,50,22.90
2015,06,30,07,51,22.90
2015,06,30,07,52,22.90
2015,06,30,07,53,22.90
2015,06,30,07,54,23.00
2015,06,30,07,55,23.10
2015,06,30,07,56,23.10
2015,06,30,07,57,23.20
2015,06,30,07,58,23.20
2015,06,30,07,59,23.30
2015,06,30,08,00,23.30
2015,06,30,08,01,23.30
2015,06,30,08,02,23.30
2015,06,30,08,03,23.30
2015,06,30,08,04,23.20
2015,06,30,08,05,23.20
2015,06,30,08,06,23.30
2015,06,30,08,07,23.30
2015,06,30,08,08,23.40
2015,06,30,08,09,23.40
2015,06,30,08,10,23.50
2015,06,30,08,11,23.50
2015,06,30,08,12,23.60
2015,06,30,08,13,23.50
2015,06,30,08,14,23.40
2015,06,30,08,15,23.40
2015,06,30,08,16,23.40
2015,06,30,08,17,23.40
2015,06,30,08,18,23.50
2015,06,30,08,19,23.50
2015,06,30,08,20,23.40
2015,06,30,08,21,23.40
2015,06,30,08,22,23.50
2015,06,30,08,23,23.50
2015,06,30,08,24,23.60
2015,06,30,08,25,23.60
2015,06,30,08,26,23.70
2015,06,30,08,27,23.80
2015,06,30,08,28,24.00
2015,06,30,08,29,24.10
2015,06,30,08,30,24.10
2015,06,30,08,31,24.20
2015,06,30,08,32,24.30
2015,06,30,08,33,24.30
2015,06,30,08,34,24.40
2015,06,30,08,35,24.40
2015,06,30,08,36,24.40
2015,06,30,08,37,24.50
2015,06,30,08,38,24.50
2015,06,30,08,39,24.50
2015,06,30,08,40,24.50
2015,06,30,08,41,24.50
2015,06,30,08,42,24.60
2015,06,30,08,43,24.70
2015,06,30,08,44,24.80
2015,06,30,08,45,24.90
2015,06,30,08,46,25.00
2015,06,30,08,47,25.10
2015,06,30,08,48,25.10
2015,06,30,08,49,25.00
2015,06,30,08,50,25.00
2015,06,30,08,51,25.00
2015,06,30,08,52,25.00
2015,06,30,08,53,25.00
2015,06,30,08,54,25.10
2015,06,30,08,55,25.20
2015,06,30,08,56,25.20
2015,06,30,08,57,25.20
2015,06,30,08,58,25.20
2015,06,30,08,59,25.30
2015,06,30,09,00,25.30
2015,06,30,09,01,25.30
2015,06,30,09,02,25.40
2015,06,30,09,03,25.50
2015,06,30,09,04,25.50
2015,06,30,09,05,25.50
2015,06,30,09,06,25.60
2015,06,30,09,07,25.50
2015,06,30,09,08,25.40
2015,06,30,09,09,25.40
2015,06,30,09,10,25.50
2015,06,30,09,11,25.50
2015,06,30,09,12,25.60
2015,06,30,09,13,25.60
2015,06,30,09,14,25.60
2015,06,30,09,15,25.60
2015,06,30,09,16,25.50
2015,06,30,09,17,25.40
2015,06,30,09,18,25.20
2015,06,30,09,19,25.10
2015,06,30,09,20,25.10
2015,06,30,09,21,25.00
2015,06,30,09,22,25.00
2015,06,30,09,23,24.90
2015,06,30,09,24,24.90
2015,06,30,09,25,25.00
2015,06,30,09,26,25.00
2015,06,30,09,27,25.00
2015,06,30,09,28,25.00
2015,06,30,09,29,25.00
2015,06,30,09,30,25.00
2015,06,30,09,31,25.00
2015,06,30,09,32,25.10
2015,06,30,09,33,25.30
2015,06,30,09,34,25.30
2015,06,30,09,35,25.30
2015,06,30,09,36,25.30
2015,06,30,09,37,25.30
2015,06,30,09,38,25.20
2015,06,30,09,39,25.20
2015,06,30,09,40,25.20
2015,06,30,09,41,25.20
2015,06,30,09,42,25.30
2015,06,30,09,43,25.50
2015,06,30,09,44,25.60
2015,06,30,09,45,25.60
2015,06,30,09,46,25.40
2015,06,30,09,47,25.50
2015,06,30,09,48,25.60
2015,06,30,09,49,25.70
2015,06,30,09,50,25.80
2015,06,30,09,51,25.80
2015,06,30,09,52,25.80
2015,06,30,09,53,25.80
2015,06,30,09,54,25.80
2015,06,30,09,55,25.80
2015,06,30,09,56,25.80
2015,06,30,09,57,25.70
2015,06,30,09,58,25.70
2015,06,30,09,59,25.70
2015,06,30,10,00,25.70
2015,06,30,10,01,25.80
2015,06,30,10,02,25.70
2015,06,30,10,03,25.60
2015,06,30,10,04,25.60
2015,06,30,10,05,25.50
2015,06,30,10,06,25.60
2015,06,30,10,07,25.60
2015,06,30,10,08,25.60
2015,06,30,10,09,25.60
2015,06,30,10,10,25.60
2015,06,30,10,11,25.50
2015,06,30,10,12,25.60
2015,06,30,10,13,25.60
2015,06,30,10,14,25.60
2015,06,30,10,15,25.60
2015,06,30,10,16,25.50
2015,06,30,10,17,25.50
2015,06,30,10,18,25.30
2015,06,30,10,19,25.30
2015,06,30,10,20,25.20
2015,06,30,10,21,25.10
2015,06,30,10,22,25.10
2015,06,30,10,23,25.10
2015,06,30,10,24,25.10
2015,06,30,10,25,25.00
2015,06,30,10,26,25.00
2015,06,30,10,27,24.90
2015,06,30,10,28,24.90
2015,06,30,10,29,24.80
2015,06,30,10,30,24.90
2015,06,30,10,31,25.00
2015,06,30,10,32,25.00
2015,06,30,10,33,25.00
2015,06,30,10,34,25.00
2015,06,30,10,35,25.00
2015,06,30,10,36,24.90
2015,06,30,10,37,25.00
2015,06,30,10,38,25.10
2015,06,30,10,39,25.20
2015,06,30,10,40,25.20
2015,06,30,10,41,25.10
2015,06,30,10,42,25.10
2015,06,30,10,43,25.10
2015,06,30,10,44,25.10
2015,06,30,10,45,25.20
2015,06,30,10,46,25.20
2015,06,30,10,47,25.20
2015,06,30,10,48,25.20
2015,06,30,10,49,25.30
2015,06,30,10,50,25.20
2015,06,30,10,51,25.20
2015,06,30,10,52,25.10
2015,06,30,10,53,25.10
2015,06,30,10,54,25.20
2015,06,30,10,55,25.30
2015,06,30,10,56,25.40
2015,06,30,10,57,25.50
2015,06,30,10,58,25.60
2015,06,30,10,59,25.60
2015,06,30,11,00,25.60
2015,06,30,11,01,25.50
2015,06,30,11,02,25.40
2015,06,30,11,03,25.40
2015,06,30,11,04,25.40
2015,06,30,11,05,25.40
2015,06,30,11,06,25.40
2015,06,30,11,07,25.40
2015,06,30,11,08,25.40
2015,06,30,11,09,25.40
2015,06,30,11,10,25.40
2015,06,30,11,11,25.40
2015,06,30,11,12,25.40
2015,06,30,11,13,25.40
2015,06,30,11,14,25.40
2015,06,30,11,15,25.50
2015,06,30,11,16,25.50
2015,06,30,11,17,25.60
2015,06,30,11,18,25.60
2015,06,30,11,19,25.60
2015,06,30,11,20,25.60
2015,06,30,11,21,25.60
2015,06,30,11,22,25.70
2015,06,30,11,23,25.70
2015,06,30,11,24,25.70
2015,06,30,11,25,25.70
2015,06,30,11,26,25.80
2015,06,30,11,27,25.90
2015,06,30,11,28,26.00
2015,06,30,11,29,26.00
2015,06,30,11,30,26.00
2015,06,30,11,31,25.90
2015,06,30,11,32,25.90
2015,06,30,11,33,25.90
2015,06,30,11,34,25.90
2015,06,30,11,35,26.00
2015,06,30,11,36,26.10
2015,06,30,11,37,26.30
2015,06,30,11,38,26.20
2015,06,30,11,39,26.10
2015,06,30,11,40,26.10
2015,06,30,11,41,26.20
2015,06,30,11,42,26.30
2015,06,30,11,43,26.30
2015,06,30,11,44,26.20
2015,06,30,11,45,26.20
2015,06,30,11,46,26.10
2015,06,30,11,47,26.20
2015,06,30,11,48,26.10
2015,06,30,11,49,26.00
2015,06,30,11,50,26.00
2015,06,30,11,51,26.00
2015,06,30,11,52,26.00
2015,06,30,11,53,25.80
2015,06,30,11,54,25.70
2015,06,30,11,55,25.70
2015,06,30,11,56,25.70
2015,06,30,11,57,25.80
2015,06,30,11,58,25.90
2015,06,30,11,59,26.00
2015,06,30,12,00,25.90
2015,06,30,12,01,25.90
2015,06,30,12,02,25.90
2015,06,30,12,03,25.90
2015,06,30,12,04,25.90
2015,06,30,12,05,25.90
2015,06,30,12,06,26.00
2015,06,30,12,07,26.00
2015,06,30,12,08,25.90
2015,06,30,12,09,26.00
2015,06,30,12,10,26.00
2015,06,30,12,11,26.00
2015,06,30,12,12,25.90
2015,06,30,12,13,26.00
2015,06,30,12,14,26.10
2015,06,30,12,15,26.20
2015,06,30,12,16,26.40
2015,06,30,12,17,26.50
2015,06,30,12,18,26.60
2015,06,30,12,19,26.50
2015,06,30,12,20,26.50
2015,06,30,12,21,26.40
2015,06,30,12,22,26.40
2015,06,30,12,23,26.30
2015,06,30,12,24,26.30
2015,06,30,12,25,26.30
2015,06,30,12,26,26.30
2015,06,30,12,27,26.40
2015,06,30,12,28,26.40
2015,06,30,12,29,26.40
2015,06,30,12,30,26.50
2015,06,30,12,31,26.60
2015,06,30,12,32,26.60
2015,06,30,12,33,26.60
2015,06,30,12,34,26.70
2015,06,30,12,35,26.60
2015,06,30,12,36,26.60
2015,06,30,12,37,26.60
2015,06,30,12,38,26.70
2015,06,30,12,39,26.70
2015,06,30,12,40,26.80
2015,06,30,12,41,26.80
2015,06,30,12,42,26.80
2015,06,30,12,43,26.80
2015,06,30,12,44,26.80
2015,06,30,12,45,26.90
2015,06,30,12,46,26.90
2015,06,30,12,47,26.90
2015,06,30,12,48,27.00
2015,06,30,12,49,27.00
2015,06,30,12,50,27.10
2015,06,30,12,51,27.10
2015,06,30,12,52,27.20
2015,06,30,12,53,27.10
2015,06,30,12,54,27.00
2015,06,30,12,55,26.90
2015,06,30,12,56,26.90
2015,06,30,12,57,26.80
2015,06,30,12,58,26.80
2015,06,30,12,59,26.80
2015,06,30,13,00,26.80
2015,06,30,13,01,26.80
2015,06,30,13,02,26.80
2015,06,30,13,03,26.70
2015,06,30,13,04,26.70
2015,06,30,13,05,26.60
2015,06,30,13,06,26.60
2015,06,30,13,07,26.60
2015,06,30,13,08,26.70
2015,06,30,13,09,26.80
2015,06,30,13,10,26.70
2015,06,30,13,11,26.80
2015,06,30,13,12,26.70
2015,06,30,13,13,26.70
2015,06,30,13,14,26.60
2015,06,30,13,15,26.60
2015,06,30,13,16,26.70
2015,06,30,13,17,26.80
2015,06,30,13,18,26.80
2015,06,30,13,19,26.70
2015,06,30,13,20,26.80
2015,06,30,13,21,26.80
2015,06,30,13,22,26.70
2015,06,30,13,23,26.60
2015,06,30,13,24,26.60
2015,06,30,13,25,26.70
2015,06,30,13,26,26.70
2015,06,30,13,27,26.80
2015,06,30,13,28,26.90
2015,06,30,13,29,26.90
2015,06,30,13,30,27.00
2015,06,30,13,31,27.00
2015,06,30,13,32,27.10
2015,06,30,13,33,27.10
2015,06,30,13,34,27.20
2015,06,30,13,35,27.20
2015,06,30,13,36,27.30
2015,06,30,13,37,27.20
2015,06,30,13,38,27.20
2015,06,30,13,39,27.30
2015,06,30,13,40,27.40
2015,06,30,13,41,27.40
2015,06,30,13,42,27.40
2015,06,30,13,43,27.40
2015,06,30,13,44,27.40
2015,06,30,13,45,27.50
2015,06,30,13,46,27.60
2015,06,30,13,47,27.70
2015,06,30,13,48,27.70
2015,06,30,13,49,27.60
2015,06,30,13,50,27.50
2015,06,30,13,51,27.40
2015,06,30,13,52,27.40
2015,06,30,13,53,27.50
2015,06,30,13,54,27.60
2015,06,30,13,55,27.60
2015,06,30,13,56,27.50
2015,06,30,13,57,27.50
2015,06,30,13,58,27.50
2015,06,30,13,59,27.50
2015,06,30,14,00,27.60
2015,06,30,14,01,27.70
2015,06,30,14,02,27.70
2015,06,30,14,03,27.70
2015,06,30,14,04,27.70
2015,06,30,14,05,27.80
2015,06,30,14,06,27.80
2015,06,30,14,07,27.80
2015,06,30,14,08,27.80
2015,06,30,14,09,27.80
2015,06,30,14,10,27.70
2015,06,30,14,11,27.70
2015,06,30,14,12,27.70
2015,06,30,14,13,27.70
2015,06,30,14,14,27.80
2015,06,30,14,15,27.80
2015,06,30,14,16,27.90
2015,06,30,14,17,27.90
2015,06,30,14,18,28.00
2015,06,30,14,19,28.00
2015,06,30,14,20,28.00
2015,06,30,14,21,28.00
2015,06,30,14,22,28.00
2015,06,30,14,23,28.10
2015,06,30,14,24,28.20
2015,06,30,14,25,28.20
2015,06,30,14,26,28.20
2015,06,30,14,27,28.10
2015,06,30,14,28,28.00
2015,06,30,14,29,27.90
2015,06,30,14,30,27.80
2015,06,30,14,31,27.70
2015,06,30,14,32,27.70
2015,06,30,14,33,27.70
2015,06,30,14,34,27.70
2015,06,30,14,35,27.70
2015,06,30,14,36,27.60
2015,06,30,14,37,27.50
2015,06,30,14,38,27.40
2015,06,30,14,39,27.50
2015,06,30,14,40,27.40
2015,06,30,14,41,27.40
2015,06,30,14,42,27.30
2015,06,30,14,43,27.30
2015,06,30,14,44,27.30
2015,06,30,14,45,27.30
2015,06,30,14,46,27.40
2015,06,30,14,47,27.40
2015,06,30,14,48,27.40
2015,06,30,14,49,27.40
2015,06,30,14,50,27.40
2015,06,30,14,51,27.30
2015,06,30,14,52,27.20
2015,06,30,14,53,27.20
2015,06,30,14,54,27.20
2015,06,30,14,55,27.20
2015,06,30,14,56,27.20
2015,06,30,14,57,27.20
2015,06,30,14,58,27.30
2015,06,30,14,59,27.30
2015,06,30,15,00,27.30
2015,06,30,15,01,27.30
2015,06,30,15,02,27.20
2015,06,30,15,03,27.20
2015,06,30,15,04,27.20
2015,06,30,15,05,27.20
2015,06,30,15,06,27.10
2015,06,30,15,07,27.10
2015,06,30,15,08,27.10
2015,06,30,15,09,27.10
2015,06,30,15,10,27.20
2015,06,30,15,11,27.10
2015,06,30,15,12,27.10
2015,06,30,15,13,27.20
2015,06,30,15,14,27.20
2015,06,30,15,15,27.30
2015,06,30,15,16,27.20
2015,06,30,15,17,27.20
2015,06,30,15,18,27.20
2015,06,30,15,19,27.30
2015,06,30,15,20,27.30
2015,06,30,15,21,27.30
2015,06,30,15,22,27.40
2015,06,30,15,23,27.40
2015,06,30,15,24,27.40
2015,06,30,15,25,27.30
2015,06,30,15,26,27.30
2015,06,30,15,27,27.30
2015,06,30,15,28,27.30
2015,06,30,15,29,27.30
2015,06,30,15,30,27.20
2015,06,30,15,31,27.10
2015,06,30,15,32,27.00
2015,06,30,15,33,26.90
2015,06,30,15,34,26.90
2015,06,30,15,35,26.90
2015,06,30,15,36,26.90
2015,06,30,15,37,27.10
2015,06,30,15,38,27.20
2015,06,30,15,39,27.20
2015,06,30,15,40,27.20
2015,06,30,15,41,27.10
2015,06,30,15,42,27.10
2015,06,30,15,43,27.20
2015,06,30,15,44,27.20
2015,06,30,15,45,27.10
2015,06,30,15,46,27.10
2015,06,30,15,47,27.20
2015,06,30,15,48,27.20
2015,06,30,15,49,27.30
2015,06,30,15,50,27.40
2015,06,30,15,51,27.40
2015,06,30,15,52,27.40
2015,06,30,15,53,27.20
2015,06,30,15,54,27.10
2015,06,30,15,55,27.10
2015,06,30,15,56,27.20
2015,06,30,15,57,27.10
2015,06,30,15,58,27.00
2015,06,30,15,59,27.00
2015,06,30,16,00,27.00
2015,06,30,16,01,27.10
2015,06,30,16,02,27.10
2015,06,30,16,03,27.20
2015,06,30,16,04,27.20
2015,06,30,16,05,27.20
2015,06,30,16,06,27.30
2015,06,30,16,07,27.20
2015,06,30,16,08,27.30
2015,06,30,16,09,27.40
2015,06,30,16,10,27.40
2015,06,30,16,11,27.40
2015,06,30,16,12,27.40
2015,06,30,16,13,27.40
2015,06,30,16,14,27.30
2015,06,30,16,15,27.40
2015,06,30,16,16,27.50
2015,06,30,16,17,27.50
2015,06,30,16,18,27.40
2015,06,30,16,19,27.40
2015,06,30,16,20,27.30
2015,06,30,16,21,27.20
2015,06,30,16,22,27.20
2015,06,30,16,23,27.20
2015,06,30,16,24,27.20
2015,06,30,16,25,27.20
2015,06,30,16,26,27.00
2015,06,30,16,27,26.90
2015,06,30,16,28,26.80
2015,06,30,16,29,26.70
2015,06,30,16,30,26.70
2015,06,30,16,31,26.80
2015,06,30,16,32,26.90
2015,06,30,16,33,27.00
2015,06,30,16,34,27.10
2015,06,30,16,35,27.00
2015,06,30,16,36,27.00
2015,06,30,16,37,27.00
2015,06,30,16,38,27.00
2015,06,30,16,39,27.10
2015,06,30,16,40,27.10
2015,06,30,16,41,27.20
2015,06,30,16,42,27.30
2015,06,30,16,43,27.30
2015,06,30,16,44,27.30
2015,06,30,16,45,27.40
2015,06,30,16,46,27.40
2015,06,30,16,47,27.30
2015,06,30,16,48,27.30
2015,06,30,16,49,27.30
2015,06,30,16,50,27.30
2015,06,30,16,51,27.30
2015,06,30,16,52,27.40
2015,06,30,16,53,27.40
2015,06,30,16,54,27.40
2015,06,30,16,55,27.30
2015,06,30,16,56,27.30
2015,06,30,16,57,27.30
2015,06,30,16,58,27.20
2015,06,30,16,59,27.20
2015,06,30,17,00,27.30
2015,06,30,17,01,27.30
2015,06,30,17,02,27.40
2015,06,30,17,03,27.40
2015,06,30,17,04,27.30
2015,06,30,17,05,27.30
2015,06,30,17,06,27.40
2015,06,30,17,07,27.40
2015,06,30,17,08,27.50
2015,06,30,17,09,27.40
2015,06,30,17,10,27.30
2015,06,30,17,11,27.40
2015,06,30,17,12,27.40
2015,06,30,17,13,27.50
2015,06,30,17,14,27.50
2015,06,30,17,15,27.60
2015,06,30,17,16,27.70
2015,06,30,17,17,27.90
2015,06,30,17,18,28.10
2015,06,30,17,19,28.30